Change the Weather History Date:

Saturday, March 29, 2014

  Actual Average (KGAF) Record (KGAF)
Temperature  
Mean Temperature 34 °F -  
Max Temperature 44 °F 41 °F 70 °F (1986)
Min Temperature 24 °F 22 °F -14 °F (1969)
Degree Days  
Heating Degree Days 31    
Moisture  
Dew Point 23 °F    
Average Humidity 65    
Maximum Humidity 100    
Minimum Humidity 46    
Precipitation  
Precipitation 0.00 in - - ()
Sea Level Pressure  
Sea Level Pressure 29.92 in    
Wind  
Wind Speed 11 mph (SSE)    
Max Wind Speed 26 mph    
Max Gust Speed 37 mph    
Visibility 10 miles    
Events      
Averages and records for this station are not official NWS values.
T = Trace of Precipitation, MM = Missing Value Source: NWS Daily Summary

Daily Weather History Graph

Daily Weather History Graph

Search for Another Location

Airport or City:

Trip Planner

Search our weather history database for the weather conditions in past years. The results will help you decide how hot, cold, wet, or windy it might be!

Date:

Astronomy

Mar. 29, 2014 Rise Set
Actual Time 7:15 AM CDT 7:58 PM CDT
Civil Twilight 6:43 AM CDT 8:30 PM CDT
Nautical Twilight 6:05 AM CDT 9:08 PM CDT
Astronomical Twilight 5:25 AM CDT 9:48 PM CDT
Moon 6:30 AM CDT 7:02 PM CDT
Length of Visible Light 13h 46m
Length of Day
12h 42m
Waning Crescent, 2% of the Moon is Illuminated
Mar 29
Waning Crescent
Mar 30
New
Apr 7
First Quarter
Apr 15
Full
Apr 22
Last Quarter

Hourly Weather History & Observations

Time (CDT) Temp. Windchill Dew Point Humidity Pressure Visibility Wind Dir Wind Speed Gust Speed Precip Events Conditions
12:15 AM 24.8 °F 20.5 °F 24.8 °F 100% 30.17 in 10.0 mi ESE 3.5 mph - N/A   Overcast
12:35 AM 24.8 °F 20.5 °F 24.8 °F 100% 30.17 in 10.0 mi ESE 3.5 mph - N/A   Overcast
12:55 AM 24.8 °F 19.1 °F 24.8 °F 100% 30.16 in 10.0 mi ESE 4.6 mph - N/A   Overcast
1:15 AM 24.8 °F 19.1 °F 24.8 °F 100% 30.15 in 10.0 mi SE 4.6 mph - N/A   Overcast
1:35 AM 24.8 °F 20.5 °F 24.8 °F 100% 30.15 in 10.0 mi SSE 3.5 mph - N/A   Overcast
1:55 AM 26.6 °F 21.2 °F 23.0 °F 86% 30.15 in 10.0 mi South 4.6 mph - N/A   Overcast
2:15 AM 26.6 °F 19.1 °F 24.8 °F 93% 30.15 in 10.0 mi SSE 6.9 mph - N/A   Overcast
2:35 AM 26.6 °F 17.5 °F 23.0 °F 86% 30.14 in 10.0 mi South 9.2 mph - N/A   Overcast
2:55 AM 26.6 °F 16.8 °F 23.0 °F 86% 30.14 in 10.0 mi South 10.4 mph - N/A   Overcast
3:15 AM 26.6 °F 16.8 °F 21.2 °F 80% 30.13 in 10.0 mi South 10.4 mph - N/A   Overcast
3:35 AM 26.6 °F 18.2 °F 21.2 °F 80% 30.12 in 10.0 mi South 8.1 mph - N/A   Overcast
3:55 AM 26.6 °F 18.2 °F 19.4 °F 74% 30.11 in 10.0 mi SSE 8.1 mph - N/A   Overcast
4:15 AM 26.6 °F 16.8 °F 17.6 °F 69% 30.11 in 10.0 mi SSE 10.4 mph - N/A   Overcast
4:35 AM 26.6 °F 16.8 °F 17.6 °F 69% 30.10 in 10.0 mi SSE 10.4 mph - N/A   Overcast
4:55 AM 26.6 °F 15.7 °F 19.4 °F 74% 30.09 in 10.0 mi SSE 12.7 mph - N/A   Overcast
5:15 AM 26.6 °F 16.2 °F 17.6 °F 69% 30.09 in 10.0 mi South 11.5 mph 17.3 mph N/A   Overcast
5:35 AM 26.6 °F 17.5 °F 17.6 °F 69% 30.08 in 10.0 mi South 9.2 mph 16.1 mph N/A   Overcast
5:55 AM 26.6 °F 15.7 °F 17.6 °F 69% 30.08 in 10.0 mi South 12.7 mph 18.4 mph N/A   Overcast
6:15 AM 26.6 °F 15.7 °F 15.8 °F 64% 30.08 in 10.0 mi South 12.7 mph - N/A   Overcast
6:35 AM 26.6 °F 15.7 °F 15.8 °F 64% 30.08 in 10.0 mi South 12.7 mph 18.4 mph N/A   Overcast
6:55 AM 26.6 °F 15.7 °F 15.8 °F 64% 30.07 in 10.0 mi South 12.7 mph 19.6 mph N/A   Overcast
7:15 AM 26.6 °F 16.2 °F 15.8 °F 64% 30.06 in 10.0 mi South 11.5 mph 17.3 mph N/A   Overcast
7:35 AM 26.6 °F 16.2 °F 15.8 °F 64% 30.06 in 10.0 mi South 11.5 mph - N/A   Overcast
7:55 AM 26.6 °F 15.2 °F 15.8 °F 64% 30.05 in 10.0 mi South 13.8 mph - N/A   Overcast
8:15 AM 26.6 °F 15.2 °F 15.8 °F 64% 30.05 in 10.0 mi South 13.8 mph 18.4 mph N/A   Overcast
8:35 AM 28.4 °F 16.6 °F 15.8 °F 59% 30.04 in 10.0 mi South 16.1 mph - N/A   Overcast
8:55 AM 28.4 °F 17.0 °F 15.8 °F 59% 30.03 in 10.0 mi South 15.0 mph - N/A   Overcast
9:15 AM 28.4 °F 17.5 °F 17.6 °F 64% 30.01 in 10.0 mi SSE 13.8 mph 20.7 mph N/A   Mostly Cloudy
9:35 AM 30.2 °F 19.3 °F 17.6 °F 60% 30.00 in 10.0 mi South 15.0 mph 23.0 mph N/A   Partly Cloudy
9:55 AM 32.0 °F 21.2 °F 17.6 °F 55% 30.00 in 10.0 mi South 16.1 mph 24.2 mph N/A   Clear
10:15 AM 32.0 °F 21.2 °F 19.4 °F 60% 29.99 in 10.0 mi SSE 16.1 mph 19.6 mph N/A   Mostly Cloudy
10:35 AM 32.0 °F 21.2 °F 19.4 °F 60% 29.98 in 10.0 mi SSE 16.1 mph 20.7 mph N/A   Mostly Cloudy
10:55 AM 35.6 °F 27.5 °F 21.2 °F 56% 29.98 in 10.0 mi South 11.5 mph 17.3 mph N/A   Scattered Clouds
11:15 AM 35.6 °F 27.5 °F 23.0 °F 60% 29.97 in 10.0 mi South 11.5 mph 23.0 mph N/A   Partly Cloudy
11:35 AM 35.6 °F 24.8 °F 21.2 °F 56% 29.96 in 10.0 mi South 19.6 mph 25.3 mph N/A   Clear
11:55 AM 37.4 °F 27.8 °F 21.2 °F 52% 29.95 in 10.0 mi South 17.3 mph 27.6 mph N/A   Scattered Clouds
12:15 PM 39.2 °F 30.2 °F 21.2 °F 49% 29.94 in 10.0 mi South 17.3 mph 27.6 mph N/A   Scattered Clouds
12:35 PM 39.2 °F 29.8 °F 23.0 °F 52% 29.92 in 10.0 mi South 18.4 mph 26.5 mph N/A   Mostly Cloudy
12:55 PM 39.2 °F 28.5 °F 23.0 °F 52% 29.91 in 10.0 mi SSE 24.2 mph 33.4 mph N/A   Overcast
1:15 PM 39.2 °F 30.5 °F 23.0 °F 52% 29.89 in 10.0 mi SSE 16.1 mph 28.8 mph N/A   Scattered Clouds
1:35 PM 39.2 °F 28.7 °F 24.8 °F 56% 29.88 in 10.0 mi SSE 23.0 mph 28.8 mph N/A   Scattered Clouds
1:55 PM 39.2 °F 29.3 °F 24.8 °F 56% 29.86 in 10.0 mi SSE 20.7 mph 29.9 mph N/A   Partly Cloudy
2:15 PM 39.2 °F 28.7 °F 24.8 °F 56% 29.85 in 10.0 mi SSE 23.0 mph 33.4 mph N/A   Clear
2:35 PM 41.0 °F 32.2 °F 24.8 °F 53% 29.83 in 10.0 mi SSE 18.4 mph 29.9 mph N/A   Clear
2:55 PM 41.0 °F 31.6 °F 24.8 °F 53% 29.81 in 10.0 mi SSE 20.7 mph 32.2 mph N/A   Clear
3:15 PM 41.0 °F 31.1 °F 24.8 °F 53% 29.79 in 10.0 mi SSE 23.0 mph 28.8 mph N/A   Clear
3:35 PM 41.0 °F 30.5 °F 24.8 °F 53% 29.77 in 10.0 mi SSE 26.5 mph 36.8 mph N/A   Clear
3:55 PM 41.0 °F 30.7 °F 24.8 °F 53% 29.76 in 10.0 mi SSE 25.3 mph 33.4 mph N/A   Clear
4:15 PM 44.6 °F 37.2 °F 26.6 °F 49% 29.75 in 10.0 mi SSE 17.3 mph 27.6 mph N/A   Partly Cloudy
4:35 PM 44.6 °F 35.5 °F 24.8 °F 46% 29.74 in 10.0 mi SSE 25.3 mph 28.8 mph N/A   Unknown
4:55 PM 44.6 °F 36.9 °F 26.6 °F 49% 29.74 in 10.0 mi South 18.4 mph 29.9 mph N/A   Unknown
5:15 PM 44.6 °F 38.1 °F 24.8 °F 46% 29.74 in 10.0 mi SSE 13.8 mph 24.2 mph N/A   Partly Cloudy
5:35 PM 44.6 °F 37.8 °F 26.6 °F 49% 29.73 in 10.0 mi SSE 15.0 mph 21.9 mph N/A   Clear
5:55 PM 44.6 °F 37.4 °F 26.6 °F 49% 29.73 in 10.0 mi SSE 16.1 mph 19.6 mph N/A   Clear
6:15 PM 42.8 °F 34.5 °F 26.6 °F 53% 29.72 in 10.0 mi SSE 18.4 mph 23.0 mph N/A   Partly Cloudy
6:35 PM 41.0 °F 31.4 °F 26.6 °F 57% 29.71 in 10.0 mi SSE 21.9 mph 26.5 mph N/A   Partly Cloudy
6:55 PM 41.0 °F 33.1 °F 26.6 °F 57% 29.71 in 10.0 mi SSE 15.0 mph 21.9 mph N/A   Mostly Cloudy
7:15 PM 41.0 °F 31.9 °F 26.6 °F 57% 29.71 in 10.0 mi SSE 19.6 mph 25.3 mph N/A   Overcast
7:35 PM 41.0 °F 33.5 °F 26.6 °F 57% 29.71 in 10.0 mi SE 13.8 mph 18.4 mph N/A   Overcast
7:55 PM 39.2 °F 31.6 °F 26.6 °F 61% 29.71 in 10.0 mi SE 12.7 mph - N/A   Overcast
8:15 PM 39.2 °F 32.0 °F 28.4 °F 65% 29.70 in 10.0 mi SE 11.5 mph - N/A   Overcast
8:35 PM 39.2 °F 31.2 °F 28.4 °F 65% 29.70 in 10.0 mi SSE 13.8 mph 20.7 mph N/A   Overcast
8:55 PM 39.2 °F 30.5 °F 28.4 °F 65% 29.70 in 10.0 mi SSE 16.1 mph - N/A   Overcast
9:15 PM 39.2 °F 32.5 °F 28.4 °F 65% 29.71 in 10.0 mi SSE 10.4 mph - N/A   Overcast
9:35 PM 39.2 °F 31.2 °F 28.4 °F 65% 29.71 in 10.0 mi SSE 13.8 mph - N/A   Overcast
9:55 PM 39.2 °F 32.0 °F 28.4 °F 65% 29.71 in 10.0 mi SSE 11.5 mph - N/A   Overcast
10:15 PM 39.2 °F 35.0 °F 28.4 °F 65% 29.72 in 10.0 mi SSE 5.8 mph - N/A   Overcast
10:35 PM 37.4 °F 32.1 °F 28.4 °F 70% 29.72 in 10.0 mi SE 6.9 mph - N/A   Overcast
10:55 PM 37.4 °F 29.8 °F 30.2 °F 75% 29.70 in 10.0 mi SSE 11.5 mph - N/A   Overcast
11:15 PM 37.4 °F 29.3 °F 30.2 °F 75% 29.69 in 10.0 mi SSE 12.7 mph - N/A   Mostly Cloudy
11:35 PM 37.4 °F 27.8 °F 32.0 °F 81% 29.67 in 10.0 mi SSE 17.3 mph - N/A   Mostly Cloudy
11:55 PM 37.4 °F 29.3 °F 32.0 °F 81% 29.67 in 10.0 mi SSE 12.7 mph - N/A   Scattered Clouds